Location: Toronto
(43.6672°N, 79.4170°W)
Time: 01:50:26
(UTC-04:00)

ISS - All Passes

Search period start: 31 May 2016 00:00
Search period end: 10 June 2016 00:00
Orbit: 402 x 404 km, 51.6° (Epoch: 30 May)

Date Brightness Start Highest point End Pass type
(mag) Time Alt. Az. Time Alt. Az. Time Alt. Az.
31 May - 00:26:03 10° NW 00:28:34 20° N 00:31:03 10° NE visible
31 May - 02:02:31 10° NW 02:05:37 39° NNE 02:08:42 10° E visible
31 May - 03:39:03 10° WNW 03:42:02 33° SW 03:45:00 10° SSE visible
31 May - 20:19:03 10° SSW 20:22:03 34° SE 20:25:03 10° ENE daylight
31 May - 21:55:23 10° W 21:58:28 38° NNW 22:01:34 10° NE visible
31 May - 23:33:03 10° NW 23:35:32 20° N 23:38:02 10° NE visible
01 Jun - 01:09:49 10° NW 01:12:42 28° NNE 01:15:36 10° E visible
01 Jun - 02:46:07 10° WNW 02:49:21 63° SW 02:52:34 10° SE visible
01 Jun - 19:27:02 10° S 19:29:26 19° SE 19:31:50 10° E daylight
01 Jun - 21:02:22 10° WSW 21:05:36 59° NNW 21:08:50 10° NE daylight
01 Jun - 22:39:55 10° WNW 22:42:32 21° N 22:45:08 10° NE visible
02 Jun - 00:17:03 10° NW 00:19:44 23° NNE 00:22:24 10° ENE visible
02 Jun - 01:53:19 10° NW 01:56:35 72° NNE 01:59:50 10° ESE visible
02 Jun - 03:30:40 10° W 03:32:40 15° SW 03:34:39 10° S night (unlit)
02 Jun - 18:36:26 10° SE 18:36:53 10° SE 18:37:22 10° ESE daylight
02 Jun - 20:09:33 10° SW 20:12:48 79° SSE 20:16:05 10° ENE daylight
02 Jun - 21:46:43 10° WNW 21:49:32 26° NNW 21:52:21 10° NE visible
02 Jun - 23:24:11 10° NW 23:26:43 20° N 23:29:15 10° NE visible
03 Jun - 01:00:35 10° NW 01:03:45 44° NNE 01:06:53 10° E visible
03 Jun - 02:37:14 10° WNW 02:40:05 28° SW 02:42:54 10° SSE visible
03 Jun - 19:16:59 10° SSW 19:20:05 41° SE 19:23:12 10° ENE daylight
03 Jun - 20:53:33 10° W 20:56:35 34° NNW 20:59:37 10° NE daylight
03 Jun - 22:31:12 10° NW 22:33:41 20° N 22:36:10 10° NE visible
04 Jun - 00:07:52 10° NW 00:10:50 30° NNE 00:13:47 10° E visible
04 Jun - 01:44:13 10° WNW 01:47:24 52° SW 01:50:35 10° SE visible
04 Jun - 18:24:48 10° S 18:27:26 23° SE 18:30:05 10° E daylight
04 Jun - 20:00:30 10° WSW 20:03:41 51° NNW 20:06:54 10° NE daylight
04 Jun - 21:38:05 10° WNW 21:40:39 21° N 21:43:13 10° NE visible
04 Jun - 23:15:07 10° NW 23:17:52 24° NNE 23:20:35 10° ENE visible
05 Jun - 00:51:22 10° WNW 00:54:39 85° NE 00:57:54 10° ESE visible
05 Jun - 02:29:07 10° WSW 02:30:39 13° SW 02:32:11 10° SSW night (unlit)
05 Jun - 17:33:24 10° SSE 17:34:51 12° SE 17:36:19 10° ESE daylight
05 Jun - 19:07:35 10° WSW 19:10:51 87° NNW 19:14:08 10° ENE daylight
05 Jun - 20:44:53 10° WNW 20:47:38 24° NNW 20:50:23 10° NE daylight
05 Jun - 22:22:16 10° NW 22:24:50 21° N 22:27:24 10° ENE visible
05 Jun - 23:58:37 10° NW 00:01:49 50° NNE 00:05:00 10° ESE visible
06 Jun - 01:35:24 10° W 01:38:04 23° SW 01:40:44 10° S visible
06 Jun - 18:14:55 10° SW 18:18:05 50° SE 18:21:17 10° ENE daylight
06 Jun - 19:51:41 10° W 19:54:39 31° NNW 19:57:37 10° NE daylight
06 Jun - 21:29:18 10° NW 21:31:47 20° N 21:34:16 10° NE visible
06 Jun - 23:05:52 10° NW 23:08:54 33° NNE 23:11:55 10° E visible
07 Jun - 00:42:17 10° WNW 00:45:24 43° SW 00:48:30 10° SE visible
07 Jun - 17:22:35 10° SSW 17:25:24 27° SE 17:28:13 10° ENE daylight
07 Jun - 18:58:34 10° W 19:01:44 45° NNW 19:04:53 10° NE daylight
07 Jun - 20:36:12 10° NW 20:38:44 20° N 20:41:16 10° NE daylight
07 Jun - 22:13:07 10° NW 22:15:55 25° NNE 22:18:43 10° ENE visible
07 Jun - 23:49:23 10° WNW 23:52:39 81° SSW 23:55:55 10° SE visible
08 Jun - 01:27:52 10° WSW 01:28:35 11° SW 01:29:19 10° SW visible
08 Jun - 16:30:50 10° S 16:32:47 15° SE 16:34:44 10° E daylight
08 Jun - 18:05:35 10° WSW 18:08:51 75° NNW 18:12:07 10° NE daylight
08 Jun - 19:43:00 10° WNW 19:45:41 23° NNW 19:48:23 10° NE daylight
08 Jun - 21:20:17 10° NW 21:22:54 21° N 21:25:30 10° ENE daylight
08 Jun - 22:56:35 10° NW 22:59:49 58° NNE 23:03:03 10° ESE visible
09 Jun - 00:33:34 10° W 00:36:01 20° SW 00:38:26 10° S visible
09 Jun - 17:12:50 10° SW 17:16:03 61° SE 17:19:17 10° ENE daylight
09 Jun - 18:49:46 10° W 18:52:41 28° NNW 18:55:35 10° NE daylight
09 Jun - 20:27:20 10° NW 20:29:50 20° N 20:32:20 10° NE daylight
09 Jun - 22:03:50 10° NW 22:06:55 37° NNE 22:09:59 10° E visible
09 Jun - 23:40:19 10° WNW 23:43:21 36° SW 23:46:22 10° SSE visible
